Location: Sulphur Springs (historical)
(38.1246°N, 122.1900°W)
Time: 09:34:03
(UTC+00:00)

CZ-4B R/B - Pass Details

Date: 29 October 2020
Orbit: 389 x 462 km, 97.6° (Epoch: 23 November)

Event Time Altitude Azimuth Distance (km) Brightness Sun altitude
Rises 12:04:38 0° 133° (SE) 2,482 5.7 -29.5°
Reaches altitude 10° 12:07:08 10° 114° (ESE) 1,609 4.9 -29.0°
Maximum altitude 12:09:32 18° 70° (ENE) 1,204 4.3 -28.6°
Drops below altitude 10° 12:11:55 10° 26° (NNE) 1,605 4.5 -28.1°
Enters shadow 12:12:05 - 24° (NNE) 1,655 4.6 -28.1°
